Terug naar catalogus

STARLINK-35474

ActiefCommunicatieVLEO
NORAD 66437·PAYLOAD·🇺🇸 United States

Gelanceerd Nov 11, 2025 vanaf Cape Canaveral Space Force Station

Loading…

Volgende Passages (komende 24 uur)

TLE

VersSource: CelesTrak SupGP

Epoch: Sep 14, 2026, 22:49 UTC

1 66437C 25259R   26257.95118056  .00032234  00000+0  11676-2 0  2579
2 66437  43.0019 285.6516 0001849 267.9342 127.2321 15.27559670    19

Volg STARLINK-35474 in realtime met AllMySat

Download on the App Store